Location: Baumgartsau
(48.4586°N, 14.0864°E)
Time: 15:07:07
(UTC+00:00)

BREEZE M DEB (TANK) - Pass Details

Date: 18 May 2021
Orbit: 296 x 11843 km, 49.5° (Epoch: 14 June)

Event Time Altitude Azimuth Distance (km) Brightness Sun altitude
Rises 19:28:54 0° 294° (WNW) 5,149 9.0 -7.2°
Reaches altitude 10° 19:31:05 10° 292° (WNW) 4,701 8.4 -7.4°
Maximum altitude 19:46:34 69° 213° (SSW) 5,081 7.1 -9.3°
Enters shadow 20:46:02 16° 148° (SSE) 14,817 8.8 -15.5°
